Regional Weather Roundup
Issued by NWS

Home | Current Version | Previous Version | Graphics & Text | Print | Product List | Glossary Off
Versions: 1 2 3 4 5 6 7 8 9 10 11 12 13 14 15 16 17 18 19 20 21 22 23 24 25 26 27

000
ASUS45 KCYS 181110
RWRWY

WYOMING REGIONAL WEATHER ROUNDUP
NATIONAL WEATHER SERVICE CHEYENNE WY
400 AM MST MON DEC 18 2017

NOTE:  "FAIR" INDICATES FEW OR NO CLOUDS BELOW 12,000 FEET
WITH NO SIGNIFICANT WEATHER AND/OR OBSTRUCTIONS TO VISIBILITY.

WYZ001-181200-
YELLOWSTONE NATIONAL PARK

CITY           SKY/WX    TMP DP  RH WIND       PRES   REMARKS
LK YELLOWSTONE   N/A     15  11  83 CALM      30.06F
W YELLOWSTONE  NOT AVBL

$$
WYZ002>013-054>058-071-098>099-181200-
NORTHERN WYOMING

CITY           SKY/WX    TMP DP  RH WIND       PRES   REMARKS
JACKSON        FLURRIES  23  17  78 SW16      30.11F WCI  10
CODY           FAIR      35  19  52 W23G35    29.84S WCI  23
GREYBULL       FAIR      13  11  92 SW3       29.92F
WORLAND        FAIR      10   9  95 CALM      29.92F
SHERIDAN       FAIR      16  13  88 N3        29.72F
BUFFALO        FAIR      33  15  47 S8        29.75F WCI  26
GILLETTE       FAIR      32  20  61 SW20      29.75F WCI  20
HULETT         FAIR      32  19  59 SW10      29.77F WCI  24
NEWCASTLE      FAIR      19  14  79 S6        29.86F WCI  11

$$
WYZ014>020-022>026-101>103-181200-
CENTRAL WYOMING

CITY           SKY/WX    TMP DP  RH WIND       PRES   REMARKS
BIG PINEY      FAIR      17  12  80 NE3       30.11R
PINEDALE       CLOUDY    21  16  79 W10       30.11S WCI  10
DUBOIS         PTSUNNY   23  16  74 N30G37    29.93F WCI   5
LANDER         FAIR      21  14  74 CALM      29.92F
RIVERTON       FAIR      15  13  91 S3        29.92F
CASPER         FLURRIES  28  18  66 SW28G43   29.90S WCI  13
DOUGLAS        FAIR      32  20  61 W12       29.87S WCI  23

$$
WYZ021-027>030-104>119-181200-
SOUTHERN WYOMING

CITY           SKY/WX    TMP DP  RH WIND       PRES   REMARKS
EVANSTON       FAIR      18  14  84 SW12      30.16S WCI   5
FORT BRIDGER   FAIR      26  10  52 W17       30.15R WCI  13
ROCK SPRINGS   FAIR      23  10  57 W28       30.11R WCI   6
DIXON          CLOUDY    20  16  83 CALM      30.17F
RAWLINS        FAIR      25  15  66 VRB5      30.05F WCI  19
LARAMIE        FAIR      26  16  65 SW33G41   29.96F WCI   9
CHEYENNE       FAIR      35  15  44 SW14G30   29.92F WCI  26
TORRINGTON     FAIR      39  19  44 W13       29.88F WCI  31
PINE BLUFFS    FAIR      18  18 100 SW6       29.95S WCI   9

$$




USA.gov is the U.S. government's official web portal to all federal, state and local government web resources and services.